Lid_Strength_Index
14 14 14 14 14 13 14 14 14 13 13 14 14 13 14 14 14 14 14 14 14 14 14 14 14 14 15 15 15 15 15 16 18 16 15 14 15 14 14 13 14 14 14
13 13 13 13 13 14 14 13 13 13 13 13 13 13 14 14 14 14 14 14 15 15 14 14 15 14 15 15 15 16 16 16 17 18 16 16 16 15 14 15 14 14 14
13 13 14 14 14 14 14 13 13 14 14 13 13 13 14 13 14 14 14 14 14 14 14 14 14 14 14 15 15 16 15 15 15 16 17 16 16 15 15 15 15 15 14
13 14 14 14 13 14 13 13 13 14 15 16 15 15 15 15 13 14 13 14 14 14 13 13 14 14 14 15 15 15 15 15 15 16 16 16 16 15 15 16 16 15 15
14 14 14 13 13 13 13 13 13 13 13 15 16 17 17 16 14 15 14 14 14 14 14 13 13 13 12 12 13 14 15 15 15 15 16 16 17 16 15 15 16 16 16
14 14 13 13 13 13 13 13 13 13 13 13 15 16 16 15 12 10 11 14 13 14 14 14 13 13 13 11 10 10 11 14 15 15 15 16 16 15 14 15 15 17 19
15 15 14 14 14 14 14 14 14 14 14 15 16 16 18 16 11 10 9 12 13 14 14 13 13 13 13 13 12 11 11 11 11 13 15 15 15 14 14 15 15 17 18
17 17 17 16 16 16 17 17 17 16 18 19 19 20 21 17 11 11 10 13 16 15 15 15 15 14 15 15 15 16 15 15 14 13 13 14 14 13 13 12 16 20 19
20 19 20 18 18 18 18 19 20 21 22 22 20 20 21 19 13 11 11 15 14 16 17 17 16 15 13 11 12 14 14 15 12 10 10 9 9 9 9 14 20 22 22
22 21 21 20 19 20 20 20 20 23 22 20 21 21 20 20 14 12 12 14 15 14 13 19 14 15 12 10 12 13 15 14 14 15 14 13 11 14 10 13 16 21 22
24 23 22 22 20 20 20 20 22 23 23 25 23 22 21 21 19 12 11 13 15 14 14 14 18 12 10 10 9 11 11 11 11 11 12 14 16 16 16 16 17 18 21
25 25 24 23 21 21 22 21 22 23 23 24 24 23 21 19 15 13 12 11 11 14 14 13 15 11 9 9 9 8 8 8 9 10 15 17 17 17 17 18 19 19 18
28 27 27 26 23 23 23 24 23 23 23 23 22 21 20 18 19 13 13 12 11 12 12 11 9 9 9 10 9 9 10 11 11 16 15 15 18 17 25 26 27 23 21
29 28 27 27 26 25 23 22 22 23 23 22 21 21 20 19 18 16 15 14 12 12 12 13 12 10 10 10 12 11 11 11 11 12 12 12 22 24 23 22 24 25 24
28 28 28 26 27 25 24 23 22 21 20 20 20 19 19 19 17 13 13 13 13 12 11 13 14 13 13 13 13 13 12 12 13 12 12 13 16 17 18 24 24 25 25
28 27 27 26 26 25 25 25 21 19 17 16 15 16 16 14 13 12 12 11 11 10 14 18 19 18 17 16 16 15 13 12 10 10 11 12 14 15 20 23 25 27 22
30 28 28 27 26 26 26 26 27 23 19 17 16 15 15 14 13 13 12 11 11 13 20 20 20 19 18 17 17 16 14 14 13 12 12 15 14 16 22 23 25 23 22
32 30 29 28 28 28 27 27 26 27 27 25 20 17 15 14 14 13 12 12 20 19 25 20 20 19 18 18 17 17 16 15 14 13 13 14 15 17 20 21 21 21 22
32 31 31 31 30 29 29 28 28 27 27 26 25 21 20 16 14 13 12 22 21 21 21 21 20 19 18 17 16 16 16 15 15 15 15 17 18 19 19 19 19 19 20
37 33 32 33 32 31 29 30 28 28 27 26 25 24 22 22 22 19 23 27 24 21 20 20 19 18 17 17 17 16 16 16 15 20 20 18 17 17 17 19 19 20 21
37 35 32 33 33 32 31 30 27 26 26 25 24 22 15 17 19 21 21 21 21 20 20 19 18 17 17 17 17 17 17 16 16 19 17 16 16 17 19 18 19 20 22
36 34 34 34 29 29 28 27 26 25 25 24 23 21 16 20 21 21 20 20 19 19 19 18 18 17 17 17 17 17 17 17 17 17 17 16 16 18 18 20 21 23 24
35 34 32 31 29 28 27 26 25 25 24 23 22 22 21 21 20 20 20 20 19 18 18 18 18 18 16 16 16 16 17 17 17 16 17 17 18 18 19 21 22 23 25
36 33 31 29 29 28 27 26 25 24 23 22 22 22 21 21 21 21 21 20 19 19 18 17 17 17 16 16 16 16 16 16 16 16 17 18 18 19 19 21 23 24 26
34 33 32 30 29 28 26 25 24 23 23 23 23 22 22 21 21 21 20 19 19 18 17 17 16 16 16 16 16 16 16 15 16 16 17 17 18 19 20 21 23 24 28
31 31 31 28 28 27 27 26 25 24 24 23 23 22 21 21 20 20 19 18 18 17 17 16 16 16 16 16 16 15 15 13 14 14 15 17 18 20 21 23 24 25 26